Location: Tel Aviv
(32.0670°N, 34.7670°E)
Time: 04:46:21
(UTC+03:00)

Vanguard 2 - Pass Details

Date: 26 January 2022
Orbit: 552 x 2935 km, 32.9° (Epoch: 25 May)

Event Time Altitude Azimuth Distance (km) Brightness Sun altitude
Rises 21:26:50 0° 269° (W) 4,375 11.9 -54.4°
Reaches altitude 10° 21:29:18 10° 270° (W) 3,658 11.4 -54.9°
Enters shadow 21:32:33 28° 272° (W) 2,826 10.5 -55.6°
Maximum altitude 21:39:28 86° 0° (N) 2,126 - -57.0°
Drops below altitude 10° 21:55:52 10° 91° (E) 5,589 - -60.3°
Sets 22:00:36 0° 92° (E) 6,735 - -61.2°
